Regional Weather Roundup
Issued by NWS

Home | Current Version | Previous Version | Text Only | Print | Product List | Glossary Off
Versions: 1 2 3 4 5 6 7 8 9 10 11 12 13 14 15 16 17 18 19 20 21 22 23 24 25 26 27 28 29 30 31 32 33 34 35 36 37 38 39 40 41 42 43 44 45 46 47 48 49 50

000
ASUS43 KLOT 220608
RWRIL

ILLINOIS REGIONAL WEATHER ROUNDUP
NATIONAL WEATHER SERVICE CHICAGO/ROMEOVILLE IL
100 AM CDT TUE AUG 22 2017

NOTE: "FAIR" INDICATES FEW OR NO CLOUDS BELOW 12,000 FEET WITH NO
SIGNIFICANT WEATHER AND/OR OBSTRUCTIONS TO VISIBILITY.

* THESE STATIONS ARE NOT UNDER NWS QUALITY CONTROL. THEY ALSO MAY NOT
  REPORT WEATHER SUCH AS PRECIPITATION OR FOG.

ILZ001-002-007-009-015-016-024-220700-
NORTHWEST ILLINOIS

CITY           SKY/WX    TMP DP  RH WIND       PRES   REMARKS
MOLINE         LGT RAIN  72  65  78 SW16G25   29.88F
6HR MIN TEMP:  72; 6HR MAX TEMP:  78; 6HR PCP:  0.05;

STERLING*      CLOUDY    74  70  87 SW12      29.85F
SAVANNA*       CLOUDY    73  71  93 W8        29.87S
$$

ILZ003-004-008-010-011-017-018-220700-
NORTH CENTRAL ILLINOIS

CITY           SKY/WX    TMP DP  RH WIND       PRES   REMARKS
ROCKFORD       CLOUDY    72  69  90 SW9       29.85F
6HR MIN TEMP:  72; 6HR MAX TEMP:  78; 6HR PCP: TRACE;

FREEPORT*      CLOUDY    71  70  96 SW8       29.86F
ROCHELLE*      CLOUDY    73  70  91 SW10G18   29.85F
DE KALB*       CLOUDY    73  70  92 SW16G23   29.85F
PERU*          CLOUDY    73  70  92 S17       29.85F
$$

ILZ005-006-012>014-019>023-220700-
NORTHEAST ILLINOIS

CITY           SKY/WX    TMP DP  RH WIND       PRES   REMARKS
CHICAGO-OHARE  CLOUDY    72  68  87 S15       29.83F
6HR MIN TEMP:  72; 6HR MAX TEMP:  81; 6HR PCP: TRACE;

CHICAGO-MIDWAY CLOUDY    72  69  90 S14       29.86F
6HR MIN TEMP:  72; 6HR MAX TEMP:  80; 6HR PCP:  0.63;

AURORA         PTCLDY    71  70  96 S12       29.85F
6HR MIN TEMP:  71; 6HR MAX TEMP:  78; 6HR PCP:  0.05;

LANSING*       CLOUDY    70  67  90 S14       29.91F
JOLIET*        CLOUDY    73  73  98 S14G20    29.88F
WAUKEGAN       CLOUDY    74  70  87 SW13G21   29.83F
6HR MIN TEMP:  74; 6HR MAX TEMP:  80; 6HR PCP: TRACE;

DUPAGE AIRPORT PTCLDY    71  69  93 S15G26    29.84F
6HR MIN TEMP:  70; 6HR MAX TEMP:  78; 6HR PCP:  0.06;

KANKAKEE*      RAIN      70  70 100 W6        29.95F
WHEELING       PTCLDY    74  70  87 S9        29.85F
6HR MIN TEMP:  74; 6HR MAX TEMP:  81;

MORRIS*        PTCLDY    72  70  95 S12G18    29.87F
ROMEOVILLE*    CLOUDY    71  68  91 S17G23    29.86F
NORTHERLY ISL    N/A     71  67  87 S14         N/A
$$

LMZ740>746-220700-
SOUTHERN LAKE MICHIGAN

STATION/POSITION SKY/WX   TEMP    WIND        PRES    VSBY  WAVE
                          AIR SEA DIR/SP/G                  HT/PER
                          (F)     (DEG/KT/KT) (MB)    (MI)  (FT/S)
SOUTHERN BUOY              74 72  230/  8/ 10 1011.1          1/ 3
WILMETTE HARBOR            74 74  190/ 17/ 23   N/A           3/ 3
HARRISON CRIB              72     200/ 20/ 22   N/A
CALUMET HARBOR             72     200/ 11/ 14 1011.0F
BURNS HARBOR               70     220/ 12/ 20 1013.5S
MICHIGAN CITY              69     230/ 25/ 28   N/A
MICHIGAN CITY 6N           71 74  210/ 16/ 19   N/A           3/ 3
ST. JOSEPH                 72 74  230/ 27/ 37 1013.1          3/ 3
$$

ILZ025>027-034>036-040-047-049-050-058-095>099-220700-
WEST-CENTRAL ILLINOIS

CITY           SKY/WX    TMP DP  RH WIND       PRES   REMARKS
QUINCY         TSTM      68  68 100 N15       29.97R FOG
GALESBURG*     RAIN      70  69  98 SW17      29.94F
MACOMB*        CLOUDY    70  69  97 W8        29.98F
JACKSONVILLE*  CLOUDY    74  70  87 S5        29.92F
PITTSFIELD*    CLOUDY    74  71  89 S5        29.94F
$$

ILZ028>032-037-038-041>044-048-051>054-059>061-220700-
CENTRAL ILLINOIS

CITY           SKY/WX    TMP DP  RH WIND       PRES   REMARKS
PONTIAC        CLOUDY    71  70  98 S7        29.92F
BLOOMINGTON    CLOUDY    71  69  93 S9        29.94F
DECATUR        CLOUDY    75  69  81 S13       29.93F
PEORIA         CLOUDY    75  73  93 SW9       29.92F
6HR MIN TEMP:  75; 6HR MAX TEMP:  79; 6HR PCP: TRACE;

LACON*         CLOUDY    74  73  96 S7        29.89F
LINCOLN*       CLOUDY    74  74  99 W3        29.94F
SPRINGFIELD    CLOUDY    76  73  91 S8        29.92F
6HR MIN TEMP:  75; 6HR MAX TEMP:  82; 6HR PCP:  0.01;

TAYLORVILLE    PTCLDY    74  71  90 S13G18    29.93F
6HR MIN TEMP:  73; 6HR MAX TEMP:  79;

$$

ILZ033-039-045-046-055>057-062-063-220700-
EAST-CENTRAL ILLINOIS

CITY           SKY/WX    TMP DP  RH WIND       PRES   REMARKS
CHAMPAIGN      LGT RAIN  74  68  81 W6G20     29.94F
RANTOUL*       TSTM      73  72  96 W8        29.96S
MATTOON        CLOUDY    74  70  87 S12       29.95F
PARIS*         CLOUDY    74  68  80 S12G17    29.97F
$$

ILZ079-100>102-220700-
SOUTHWEST ILLINOIS

CITY           SKY/WX    TMP DP  RH WIND       PRES   REMARKS
ALTON          PTCLDY    76  75  97 S8        29.96F
BELLEVILLE     PTCLDY    77  74  91 SW5       29.98F
CAHOKIA*       PTCLDY    83  74  74 S8        29.96F HX  89
SPARTA*        CLEAR     75  73  91 S6        30.01F
$$

ILZ064>066-069>071-074>076-080>082-084>086-088>090-092>094-220700-
SOUTH-CENTRAL ILLINOIS

CITY           SKY/WX    TMP DP  RH WIND       PRES   REMARKS
CARBONDALE     CLEAR     73  72  96 S7        30.02F
6HR MIN TEMP:  73; 6HR MAX TEMP:  86;

CAIRO*         CLEAR     78  75  90 S6        30.03F HX  81
EFFINGHAM*     PTCLDY    74  72  92 SE9       29.99F
MARION         CLEAR     75  75 100 CALM      30.03F
MT. VERNON       N/A     72  71  97 S5        30.01F
CENTRALIA*     CLEAR     74  72  94 S10       29.99F
SALEM*         PTCLDY    75  70  83 S6        29.99F
METROPOLIS*    CLEAR     78  74  86 S5        30.04F HX  81
$$

ILZ067-068-072-073-078-083-087-091-220700-
SOUTHEAST ILLINOIS

CITY           SKY/WX    TMP DP  RH WIND       PRES   REMARKS
LAWRENCEVILLE  PTCLDY    72  71  97 S5        30.00F
FLORA*         PTCLDY    74  72  93 S9        30.00F
FAIRFIELD*     CLOUDY    72  72  99 S3        30.00F
HARRISBURG*    CLEAR     72  71  97 CALM      30.03F
ROBINSON*      PTCLDY    71  69  96 S7        30.00F
CARMI*         CLEAR     72  72  99 S6        30.01F
$$

ABBREVIATIONS USED IN REMARKS
   TC - TEMPERATURE IN CELSIUS
  WCI - WIND CHILL INDEX
   HX - HEAT INDEX
  VSB - VISIBILITY
$$





USA.gov is the U.S. government's official web portal to all federal, state and local government web resources and services.